Wetbulb
48.77 43.42 42.21 45.14 47.38 48.48 48.06 46.19 46.19 48.72 52.23 50.62 51.26 51.59 55.65 58.73 62.28 62.42 65.77 67.63 69.03 70.18 70.66 70.31 70.25 72.12 74.50 75.90 76.11 76.30 75.79 76.16 75.54 74.06 73.17 73.23 73.42 75.30 75.32 76.59 76.54 76.17 76.47 76.22
43.78 39.88 46.54 48.14 47.90 47.41 47.46 46.22 46.41 48.91 51.64 50.77 50.93 50.93 55.32 57.48 58.94 61.17 61.10 66.47 67.51 65.89 64.53 65.31 67.22 68.37 71.20 74.10 75.00 75.44 75.16 75.66 75.83 74.66 76.10 74.62 74.80 74.96 75.45 75.28 75.03 75.34 74.83 74.15
40.36 43.10 47.77 46.68 46.17 45.81 46.19 45.81 46.11 46.67 49.15 51.22 50.27 49.53 51.85 56.77 58.47 59.23 59.34 61.55 63.52 62.82 63.00 64.90 68.46 69.79 71.02 71.89 73.67 74.31 75.48 75.21 76.12 77.17 75.33 74.51 74.97 74.35 72.59 72.47 71.38 70.85 70.96 70.90
41.71 47.29 45.75 45.05 44.61 46.34 43.26 48.00 47.43 46.56 47.02 43.46 50.13 42.45 49.94 53.32 55.18 57.29 58.95 59.16 60.85 62.13 62.72 64.20 67.74 70.07 71.91 72.85 73.88 74.44 75.17 75.27 75.06 75.65 75.86 76.30 72.69 71.13 70.87 70.12 68.79 67.44 67.52 67.22
42.50 44.38 43.85 43.53 45.13 47.57 45.17 48.82 47.17 47.57 47.08 46.91 46.64 44.42 48.53 52.76 53.06 55.76 57.96 59.46 60.47 61.47 62.01 62.22 65.09 69.09 71.10 72.67 72.67 74.07 74.82 74.62 74.91 74.06 75.91 73.84 74.42 70.39 69.03 67.66 67.83 67.20 66.80 65.71
44.63 48.59 46.37 45.36 47.54 48.16 47.95 47.19 47.24 47.81 45.96 40.00 45.09 45.17 44.86 49.44 52.81 54.74 58.32 59.90 60.71 60.68 61.36 62.50 64.10 68.64 70.11 71.51 73.02 73.24 73.45 74.14 74.44 74.72 74.79 74.27 72.28 71.13 66.98 66.95 64.92 63.99 63.81 64.17
42.69 43.36 46.51 47.16 44.63 46.46 47.55 44.94 38.88 36.09 37.33 37.37 46.07 44.86 47.61 52.46 54.71 56.25 57.22 59.38 60.49 61.14 61.95 62.25 64.57 67.22 68.71 70.37 71.71 72.77 73.33 72.87 73.46 72.71 71.54 70.40 69.82 70.31 67.44 66.63 63.33 64.48 62.02 62.98
38.11 36.34 43.54 46.58 46.02 44.68 45.79 44.93 39.89 33.45 35.90 40.00 46.34 42.69 46.38 53.00 55.84 57.25 58.75 60.14 61.27 61.14 61.13 61.61 63.35 66.59 67.94 69.64 71.23 71.71 71.93 71.27 70.96 69.77 68.66 68.31 67.73 64.94 64.16 66.05 63.38 62.60 62.45 63.39
39.28 38.29 44.69 45.87 47.86 48.14 45.54 42.46 46.66 42.41 43.94 40.63 42.69 46.95 50.63 52.65 53.06 55.30 56.25 58.20 58.93 59.86 60.79 60.72 61.64 64.52 67.52 69.17 70.33 70.92 70.19 69.02 67.68 66.37 66.04 66.27 66.25 67.61 65.68 66.32 67.00 63.83 65.44 63.16
43.82 38.03 43.19 44.64 47.03 48.18 46.64 48.78 42.02 44.59 37.04 35.02 41.21 43.14 44.13 48.82 50.99 53.23 54.13 55.94 58.03 59.52 59.86 60.24 60.87 62.82 67.57 69.03 69.98 70.02 68.44 66.64 65.33 65.22 65.30 64.78 65.77 65.64 65.78 65.77 64.78 64.83 64.59 64.10
47.02 43.82 42.02 43.63 43.09 42.99 44.57 44.31 46.44 46.60 43.86 38.98 38.03 42.47 51.10 51.14 52.24 52.96 54.66 55.94 57.01 58.20 58.97 59.28 59.81 62.25 67.92 68.93 68.88 67.86 66.32 64.85 64.49 64.81 65.35 65.23 64.74 64.89 64.95 64.40 63.90 63.49 63.54 62.98
47.95 45.30 38.84 40.08 45.41 47.26 47.24 46.22 47.07 42.60 41.63 44.78 43.74 43.33 52.46 53.50 53.61 54.32 54.43 55.49 56.97 58.68 59.26 59.32 59.71 65.80 67.07 67.74 67.55 65.80 65.04 64.30 64.52 64.69 64.58 64.35 64.05 63.89 63.81 63.12 63.07 62.49 61.58 61.13
48.31 44.38 38.11 39.32 43.34 46.09 44.50 46.72 47.47 47.75 47.74 43.31 41.03 41.08 53.59 55.35 55.89 56.29 56.23 57.77 58.44 59.88 60.33 60.09 60.62 65.66 65.72 66.22 65.43 64.40 64.10 63.67 63.87 63.70 63.50 63.42 62.86 62.72 62.31 61.71 61.30 60.85 60.10 59.38
52.16 46.19 42.47 37.70 40.86 44.32 42.58 44.39 46.50 46.96 43.42 43.57 43.78 46.21 50.85 53.14 54.51 56.63 57.46 58.50 60.19 61.60 61.73 61.91 63.25 63.67 64.67 63.86 62.78 63.21 63.31 63.30 63.15 63.16 63.02 62.14 61.44 61.02 60.51 60.12 59.63 58.83 58.46 57.58
51.54 44.05 44.90 45.59 45.58 45.05 44.24 43.81 44.66 44.19 45.80 44.04 46.69 46.35 49.48 53.43 56.24 57.24 58.87 59.55 60.93 61.58 63.31 63.89 62.98 62.08 61.06 62.07 62.33 62.71 62.37 62.21 62.31 61.48 60.69 59.69 59.45 59.06 58.67 57.97 57.50 57.14 56.33 55.61
50.97 45.40 46.44 43.76 44.87 45.01 43.53 45.02 45.40 46.29 47.55 47.55 47.37 48.53 54.16 57.68 58.02 57.79 59.03 59.71 58.96 59.63 60.92 61.75 58.59 57.58 58.34 59.17 59.59 59.62 58.99 59.51 60.07 58.99 57.95 57.63 57.39 56.72 56.12 55.88 55.04 54.43 53.67 53.34
48.89 46.69 46.15 41.80 45.05 44.77 41.55 44.91 45.80 46.50 48.25 47.85 45.91 52.04 55.89 55.66 56.45 57.53 56.97 55.20 53.06 53.56 53.91 54.12 54.49 55.91 55.80 56.35 57.50 56.45 56.71 56.74 57.44 56.77 55.92 55.25 54.66 53.56 53.15 52.79 52.11 51.59 51.55 52.08
48.98 48.36 45.58 43.36 45.17 36.72 47.41 51.14 49.47 47.54 48.53 51.03 53.28 54.18 55.83 56.33 56.68 56.25 56.01 53.42 52.15 49.65 49.99 51.21 52.49 55.01 55.30 55.03 54.67 55.05 55.18 54.51 54.02 53.64 52.55 51.99 51.20 50.40 50.49 50.40 50.28 50.77 50.77 50.66
52.15 49.64 45.09 40.52 40.48 44.21 43.75 50.35 49.48 47.62 48.43 52.77 53.49 54.74 54.57 54.55 53.89 49.96 53.07 52.28 49.07 45.20 46.53 45.88 46.68 49.57 48.61 49.06 51.57 52.81 52.02 51.63 50.66 49.46 49.17 49.10 49.16 48.87 48.92 48.81 49.21 49.58 49.54 49.10
51.40 52.27 47.36 44.54 39.60 34.88 47.49 51.95 54.17 53.52 43.75 55.22 57.16 54.40 52.54 52.79 49.07 46.64 49.41 47.29 45.45 44.83 44.20 44.27 46.08 47.57 47.85 47.95 49.26 48.59 47.72 48.58 47.31 47.25 47.58 48.28 48.37 47.85 47.50 47.91 47.63 47.13 46.06 46.44
46.62 46.90 44.12 42.85 41.56 44.38 49.03 53.55 54.69 44.71 46.59 56.03 58.09 55.49 54.15 53.59 55.08 51.21 52.02 49.32 48.59 46.12 44.53 45.16 45.34 45.11 45.36 47.16 48.68 48.47 47.84 45.93 46.25 46.41 46.72 47.60 47.83 46.83 47.21 46.08 44.73 44.58 44.77 45.58
44.71 43.82 43.97 44.97 42.36 39.64 54.84 53.32 47.96 55.28 57.24 57.75 58.06 56.92 55.15 53.06 51.91 52.04 51.71 50.85 50.52 50.15 50.21 49.74 48.50 47.56 48.01 48.26 49.09 47.46 45.01 45.14 45.20 45.61 46.11 45.96 45.26 44.60 44.48 43.71 44.01 44.38 44.64 44.51
45.24 48.53 46.80 47.22 46.70 55.60 57.57 57.19 58.79 59.34 57.66 58.17 58.44 56.35 54.45 52.94 51.82 51.23 50.42 49.83 49.19 48.79 48.53 48.79 47.66 46.73 46.77 46.49 46.32 44.57 43.10 42.74 42.79 43.29 43.08 43.36 43.31 43.23 43.69 43.40 43.04 43.81 44.55 42.08
52.22 54.18 50.25 50.53 52.70 53.76 54.63 57.38 57.24 59.01 58.75 59.34 57.69 56.05 54.57 51.90 51.47 50.23 49.31 48.30 47.70 47.56 47.02 47.62 46.97 45.62 44.65 45.18 44.21 42.47 41.27 40.12 40.78 41.18 41.47 41.98 41.39 40.02 42.74 43.18 43.03 42.32 42.11 40.08
49.33 52.71 50.74 50.32 52.30 52.92 54.30 56.05 56.57 57.23 57.37 56.30 56.10 55.04 53.23 51.99 50.32 49.53 47.90 46.87 46.46 46.27 46.38 46.67 45.64 44.51 43.74 43.98 42.50 41.29 39.63 39.52 38.69 39.36 40.20 40.38 40.76 39.39 39.51 42.03 41.33 41.15 41.70 37.88
53.20 50.27 49.43 48.15 53.52 53.77 53.54 55.02 55.71 54.55 54.25 54.49 53.40 52.04 52.14 50.85 48.70 47.88 45.92 46.03 45.83 45.34 45.71 45.29 44.95 44.14 43.20 42.84 41.56 40.14 38.79 38.26 37.45 37.23 38.22 38.88 39.62 38.75 37.86 37.55 39.31 37.44 36.77 37.05
MSLP
1005.58 1005.01 1002.98 1001.67 1000.97 999.95 999.34 999.89 998.82 998.83 998.60 999.42 998.98 999.46 998.45 999.61 999.86 999.85 999.46 1000.05 1000.97 1001.37 1002.90 1004.15 1004.79 1005.19 1006.47 1007.69 1008.29 1008.43 1009.41 1010.49 1010.88 1010.62 1010.62 1010.44 1010.41 1010.40 1010.82 1011.63 1012.40 1012.86 1012.92 1013.31
1005.29 1004.13 1003.29 1002.16 1001.45 999.96 998.86 998.84 998.23 998.64 997.91 999.16 998.98 998.98 998.50 999.51 1000.03 999.88 1001.27 998.76 999.31 1000.41 1002.62 1003.95 1004.82 1005.49 1006.20 1007.58 1008.43 1008.69 1009.58 1010.58 1010.59 1010.41 1010.01 1010.06 1010.11 1010.51 1011.66 1012.32 1012.93 1013.20 1013.41 1013.63
1004.32 1004.43 1002.76 1001.50 1000.79 999.93 998.93 998.11 998.17 997.80 997.93 998.80 999.16 998.80 998.63 999.17 1000.13 1000.61 1001.15 999.05 999.33 1000.62 1002.30 1003.60 1004.81 1005.70 1006.44 1007.20 1008.12 1008.94 1009.57 1010.28 1010.43 1010.13 1010.55 1010.84 1011.35 1011.74 1012.01 1012.65 1013.25 1013.84 1013.77 1013.82
1004.87 1002.56 1001.79 1000.91 1000.28 999.86 998.84 998.34 998.10 997.58 998.34 997.99 998.81 998.00 998.48 998.86 1000.64 1001.19 1001.55 1001.98 1000.40 1001.06 1002.22 1003.23 1004.52 1005.71 1006.50 1007.32 1008.07 1008.78 1009.34 1010.04 1010.34 1010.53 1010.42 1010.68 1010.70 1011.05 1011.77 1012.51 1013.67 1014.09 1014.07 1014.10
1002.53 1001.87 1001.50 1000.44 999.86 999.85 999.10 998.88 998.37 998.24 998.54 998.32 998.65 997.72 997.46 998.52 998.83 1000.27 1001.32 1001.79 1001.74 1001.94 1002.63 1003.19 1004.05 1005.52 1006.09 1007.19 1008.04 1008.76 1009.48 1009.94 1010.06 1010.65 1010.49 1010.72 1010.76 1011.82 1012.32 1013.28 1013.93 1014.41 1014.61 1014.52
1001.72 1002.04 1001.94 1000.60 1000.25 1000.16 999.34 999.07 999.21 998.64 998.51 998.05 997.73 997.54 996.51 997.19 998.22 998.88 999.59 1000.36 1001.27 1001.95 1002.86 1003.26 1003.95 1004.66 1006.04 1006.64 1007.89 1008.60 1009.29 1009.65 1010.05 1010.41 1010.66 1010.81 1011.55 1011.90 1012.72 1013.24 1013.43 1013.49 1014.08 1014.68
1001.23 1001.61 1002.37 1001.99 1000.73 1000.65 999.91 999.12 998.83 998.82 998.52 998.57 997.70 997.35 995.80 996.86 997.04 997.91 998.88 999.58 1000.40 1001.11 1001.84 1002.55 1003.35 1004.96 1005.85 1006.58 1007.58 1008.34 1008.90 1009.52 1010.05 1010.67 1011.30 1011.71 1012.16 1012.58 1013.09 1013.14 1013.10 1013.39 1013.77 1014.19
1000.34 1001.08 1001.89 1001.54 1000.31 999.54 998.93 998.77 997.76 998.02 998.26 997.92 997.50 996.54 996.31 996.51 996.48 997.26 998.29 999.34 1000.11 1001.21 1001.51 1002.08 1002.77 1004.23 1005.66 1006.53 1007.26 1007.88 1008.78 1009.69 1010.42 1011.01 1011.56 1012.14 1012.64 1012.70 1012.98 1013.17 1013.47 1013.65 1013.92 1014.54
999.80 1000.10 1000.82 1001.39 999.97 999.45 998.17 998.06 997.31 997.63 997.79 996.86 996.40 996.60 996.51 996.46 997.64 997.45 998.09 998.95 999.78 1000.55 1001.16 1001.78 1002.33 1003.23 1004.93 1006.36 1007.07 1007.90 1008.98 1009.90 1010.61 1011.31 1011.92 1012.49 1012.46 1012.68 1013.37 1014.10 1014.09 1014.16 1014.60 1014.63
999.50 999.56 1000.04 1000.80 1000.14 999.49 998.21 997.25 998.07 997.23 996.26 996.16 996.17 996.06 996.39 996.89 997.32 998.47 998.82 998.98 999.52 1000.22 1001.00 1001.89 1002.22 1002.80 1004.29 1006.28 1007.66 1008.33 1009.21 1009.92 1010.73 1011.44 1012.12 1012.56 1013.06 1013.47 1014.00 1014.29 1014.52 1014.84 1015.24 1015.39
998.45 998.95 999.53 1000.13 999.39 998.50 998.50 998.05 997.20 996.18 995.63 995.70 995.63 996.16 996.68 997.31 997.98 998.89 999.42 999.84 1000.26 1000.68 1001.04 1001.62 1002.06 1002.54 1004.28 1006.10 1007.67 1008.71 1009.28 1010.12 1010.90 1011.48 1012.12 1012.86 1013.29 1013.78 1014.05 1014.30 1014.63 1015.12 1015.40 1015.53
998.65 998.42 999.15 999.40 999.15 998.76 998.09 997.80 997.43 996.99 996.78 996.83 996.62 996.71 997.01 997.48 998.14 998.71 999.15 999.58 999.83 1000.25 1000.69 1001.32 1001.86 1002.76 1004.48 1006.24 1007.50 1008.89 1009.57 1010.22 1010.94 1011.75 1012.47 1013.10 1013.55 1014.02 1014.27 1014.58 1015.00 1015.36 1015.50 1015.61
998.78 998.58 998.79 999.12 999.19 998.55 998.06 997.57 997.84 997.65 997.17 997.46 997.50 999.37 998.24 998.43 998.79 999.59 999.58 1000.11 1001.10 1001.75 1001.63 1001.66 1002.09 1003.27 1005.14 1006.60 1007.70 1009.10 1009.88 1010.33 1011.13 1011.90 1012.80 1013.50 1013.89 1014.21 1014.71 1015.12 1015.42 1015.68 1015.75 1015.70
999.80 998.79 998.30 998.13 997.98 998.32 998.14 997.92 998.03 997.97 997.89 997.46 997.39 998.49 998.75 999.30 999.69 1000.64 1001.32 1001.90 1001.89 1002.44 1002.27 1002.31 1003.08 1004.39 1006.09 1007.50 1008.42 1009.52 1010.08 1010.91 1011.43 1011.92 1012.67 1013.72 1014.36 1014.73 1015.13 1015.57 1015.84 1015.91 1016.01 1015.92
999.38 998.47 998.20 997.61 997.71 998.13 997.91 997.78 998.05 998.14 998.05 997.56 998.10 998.79 998.78 999.35 1000.23 1001.41 1002.31 1002.79 1003.39 1003.73 1004.39 1005.22 1006.00 1007.02 1007.95 1008.60 1009.36 1010.08 1011.06 1011.84 1012.16 1012.61 1013.41 1014.29 1014.75 1015.10 1015.31 1015.78 1016.08 1016.14 1016.18 1015.98
999.57 998.74 998.26 997.46 997.95 998.03 997.59 997.44 997.51 997.42 997.24 998.05 997.93 998.56 1000.25 1000.20 1001.71 1002.62 1003.63 1004.96 1006.38 1007.15 1007.33 1008.10 1008.65 1009.77 1010.39 1010.64 1011.42 1012.49 1013.20 1013.44 1013.38 1013.67 1014.11 1014.65 1015.08 1015.36 1015.65 1016.02 1016.17 1016.24 1016.26 1016.18
999.41 999.35 998.09 997.70 997.73 997.72 997.41 996.82 997.00 997.10 997.07 997.09 997.70 998.57 1000.22 1001.04 1002.53 1004.27 1006.28 1008.10 1009.38 1009.98 1010.37 1010.46 1010.93 1011.94 1012.65 1013.24 1013.85 1014.37 1014.59 1014.45 1014.19 1014.44 1014.78 1015.18 1015.59 1015.70 1015.93 1016.26 1016.32 1016.30 1016.46 1016.44
999.11 998.66 999.06 998.07 997.97 998.37 997.21 996.11 996.14 996.52 996.94 997.50 998.83 999.62 1000.65 1002.72 1004.92 1006.81 1008.55 1010.24 1011.47 1012.46 1012.93 1012.91 1013.46 1014.02 1014.33 1014.75 1015.39 1015.43 1015.14 1015.13 1015.13 1015.42 1015.73 1015.92 1016.08 1016.26 1016.37 1016.63 1016.61 1016.68 1016.66 1016.55
999.11 998.41 999.22 999.67 999.45 999.25 999.64 996.96 996.55 996.53 997.22 998.20 998.67 999.89 1002.12 1004.80 1007.06 1009.60 1010.87 1012.03 1013.56 1014.67 1015.31 1015.41 1015.57 1015.82 1016.24 1016.46 1016.24 1015.80 1015.78 1016.08 1016.38 1016.60 1016.79 1016.83 1016.89 1016.86 1016.99 1016.99 1016.99 1017.12 1016.91 1016.85
999.24 999.07 998.57 999.25 998.43 999.40 996.65 997.07 997.19 997.22 999.06 998.55 999.71 1002.00 1004.20 1005.55 1006.46 1010.15 1012.19 1013.59 1015.05 1014.91 1016.47 1016.54 1016.48 1016.29 1016.57 1016.67 1016.93 1016.81 1016.92 1017.10 1017.48 1017.86 1017.89 1017.73 1017.70 1017.80 1017.73 1017.69 1017.73 1017.86 1017.85 1017.34
999.31 999.21 998.82 998.40 999.12 999.03 999.51 998.03 998.13 998.41 999.44 999.24 1000.86 1003.15 1004.74 1005.55 1005.99 1009.87 1011.87 1013.48 1014.91 1015.71 1016.74 1016.55 1017.29 1016.93 1017.10 1017.28 1017.32 1017.30 1017.64 1018.22 1018.83 1018.89 1018.64 1018.41 1018.43 1018.47 1018.24 1018.34 1018.52 1018.28 1017.89 1017.30
998.74 998.92 998.95 999.00 998.77 998.46 998.82 999.07 998.70 999.92 1000.24 1000.35 1001.95 1003.85 1005.49 1007.34 1008.70 1010.16 1011.72 1013.05 1014.12 1014.81 1015.13 1015.35 1015.87 1016.84 1017.56 1017.74 1017.64 1018.05 1018.78 1019.39 1019.56 1019.52 1019.19 1019.10 1019.11 1019.01 1018.91 1018.88 1018.53 1018.16 1017.66 1017.35
998.68 998.36 998.63 998.95 999.34 999.95 999.96 999.84 1000.31 1000.69 1000.90 1001.64 1002.90 1005.09 1006.67 1008.01 1009.52 1010.95 1012.06 1013.15 1013.97 1014.58 1015.09 1015.61 1016.53 1017.47 1018.18 1018.66 1018.96 1019.32 1020.33 1020.81 1020.75 1020.31 1020.02 1019.76 1019.72 1019.61 1019.31 1018.90 1018.55 1018.04 1017.64 1017.64
998.83 999.56 998.91 999.63 1000.28 1000.65 1001.08 1001.15 1001.40 1001.38 1001.87 1002.70 1004.60 1006.04 1007.35 1008.63 1010.23 1011.45 1012.58 1013.58 1014.36 1015.12 1015.66 1016.23 1016.91 1017.80 1018.78 1019.61 1020.30 1021.09 1021.65 1021.86 1021.34 1020.89 1020.61 1020.36 1020.08 1020.08 1019.30 1018.92 1018.61 1018.37 1018.05 1018.08
1001.20 999.63 999.34 1000.16 1000.93 1001.52 1001.89 1002.16 1002.67 1002.96 1003.77 1004.70 1005.95 1007.07 1008.36 1009.65 1011.03 1012.08 1013.12 1014.07 1015.01 1015.86 1016.52 1017.09 1017.79 1018.63 1019.44 1020.20 1021.01 1021.81 1022.23 1022.22 1021.93 1021.58 1021.08 1020.82 1020.48 1020.28 1019.82 1019.24 1019.25 1018.99 1018.92 1019.42
1001.29 1000.74 999.97 1000.52 1001.03 1001.06 1002.37 1003.46 1004.16 1004.68 1005.40 1006.28 1007.23 1008.46 1009.69 1010.78 1011.86 1012.97 1013.96 1015.02 1015.80 1016.55 1017.29 1017.99 1018.71 1019.39 1020.17 1020.87 1021.53 1022.20 1022.66 1022.68 1022.51 1022.22 1021.83 1021.31 1020.95 1020.69 1020.49 1020.02 1019.36 1019.37 1019.32 1019.26
Wind_Speed
21 16 24 31 29 30 26 29 29 29 25 30 26 24 22 21 15 5 20 19 17 22 15 14 8 12 16 11 7 13 13 10 9 8 9 8 8 6 5 8 6 3 6 8
20 20 25 25 27 28 28 31 29 29 25 29 27 26 23 21 20 14 10 20 20 11 18 14 12 11 12 15 12 13 13 12 8 7 5 4 2 6 6 4 4 4 3 4
18 22 28 26 26 26 25 28 30 27 25 27 25 22 26 25 15 14 11 15 20 18 16 14 12 11 12 13 14 12 12 13 9 8 6 4 5 4 5 6 6 6 7 8
13 21 20 24 25 25 23 21 28 23 21 14 26 16 27 20 24 19 20 7 8 15 14 15 14 12 12 12 12 13 12 11 9 9 8 8 7 7 7 7 7 7 8 9
15 20 20 22 23 24 15 23 20 20 24 21 26 21 25 23 24 32 23 20 15 11 8 5 13 13 13 13 12 12 10 10 9 8 8 8 7 9 7 8 8 8 6 7
10 17 15 13 17 19 9 19 13 16 16 15 23 24 19 24 22 24 27 29 24 15 8 13 10 14 12 12 13 12 13 11 12 10 9 8 10 9 9 8 7 6 7 6
15 19 16 15 18 17 16 19 13 12 11 11 22 21 17 31 29 25 23 20 20 16 20 16 16 11 11 14 14 13 14 13 13 12 12 13 11 10 10 8 5 5 4 5
15 22 22 21 21 18 24 23 13 19 13 16 20 15 22 5 26 24 22 21 18 19 16 16 16 16 15 14 16 15 15 15 14 15 14 12 13 8 7 5 5 5 4 5
16 17 24 20 16 19 21 25 20 19 21 17 16 19 11 16 9 15 23 23 22 20 18 14 15 15 15 12 14 16 16 16 16 15 12 11 8 7 10 7 4 4 4 3
6 15 18 24 22 21 18 17 5 11 19 12 11 17 11 12 19 13 10 13 11 11 11 15 14 14 17 14 13 15 16 17 16 14 11 10 9 9 8 6 6 6 5 5
7 14 13 21 18 17 15 13 11 11 5 15 11 14 14 18 13 16 15 16 16 18 18 18 16 14 18 16 16 15 16 17 15 13 11 11 9 8 6 6 5 5 4 6
3 7 13 22 15 17 16 20 13 6 7 2 1 5 8 17 17 17 17 16 13 11 12 14 15 18 16 16 17 15 16 16 13 12 11 9 7 7 6 5 5 5 5 6
7 8 14 16 12 17 15 14 11 8 6 6 8 5 8 9 11 4 5 7 5 8 14 15 16 17 16 14 16 15 14 14 13 11 10 8 6 6 6 5 5 6 7 8
5 8 14 11 15 15 18 17 15 10 5 7 6 17 16 14 12 11 6 5 6 8 7 10 12 12 13 12 14 14 12 11 10 9 9 7 6 6 5 5 6 7 8 10
6 13 15 12 16 17 18 18 19 15 14 15 23 12 13 16 14 9 8 7 10 7 13 14 14 10 6 11 12 12 10 9 6 7 8 6 5 5 5 7 8 9 10 11
3 6 6 14 17 17 15 17 20 18 17 16 14 16 18 14 13 12 12 14 12 10 11 13 12 14 11 14 13 11 9 7 7 7 7 6 6 7 7 8 10 11 12 13
7 6 11 9 19 19 18 18 18 15 15 9 2 20 14 16 15 15 14 15 16 15 17 16 17 15 13 13 10 8 6 6 7 6 6 7 7 8 10 11 12 12 13 12
10 10 2 9 11 11 6 11 16 17 12 11 11 11 18 18 17 15 13 14 16 15 12 13 12 12 11 11 7 5 7 8 8 8 8 9 10 11 11 12 12 12 11 12
12 11 8 5 9 5 12 7 7 7 10 0 12 22 21 21 21 14 12 13 14 14 9 9 10 11 11 8 7 7 8 9 8 10 10 11 11 11 12 12 12 11 11 11
12 9 10 14 5 2 1 13 4 6 4 10 20 17 19 21 10 10 16 15 12 14 6 5 7 8 10 8 6 6 8 10 10 10 11 11 11 11 11 11 11 11 10 11
11 12 10 9 4 10 8 12 7 10 6 5 18 17 18 10 9 21 18 18 15 14 14 11 10 7 9 7 5 7 9 11 10 10 10 10 10 10 10 10 10 9 10 10
13 12 10 12 9 8 10 8 2 7 10 11 14 16 17 21 23 21 19 18 17 15 13 11 11 10 10 10 9 10 12 11 11 10 9 10 10 9 8 9 8 9 9 9
15 13 10 9 4 7 11 12 10 8 12 13 17 20 21 21 20 19 17 15 13 11 10 10 11 11 10 11 11 11 10 10 9 9 8 9 9 8 9 8 8 8 8 7
9 4 6 7 8 7 5 8 6 11 14 18 19 20 20 22 20 18 16 14 11 10 10 10 10 10 10 9 10 9 8 7 7 8 8 8 8 9 8 7 7 7 7 8
2 5 9 6 7 9 7 11 11 14 17 19 19 20 20 20 19 17 14 13 12 10 9 9 9 9 9 9 9 9 8 8 9 9 8 8 7 8 9 9 8 7 8 7
4 5 7 6 14 8 15 14 16 18 19 19 20 21 18 18 16 16 14 12 11 11 10 9 10 10 9 9 10 9 9 8 8 7 7 7 7 7 7 7 7 6 3 6
Wind_Direction
192 190 206 200 217 208 197 204 207 212 188 205 207 213 209 178 208 235 179 179 182 163 164 161 179 157 150 155 140 148 162 156 180 171 186 174 176 159 158 73 53 352 4 357
178 211 211 198 214 225 204 197 218 197 195 198 208 204 208 190 189 201 250 182 161 161 154 160 152 166 170 155 162 153 157 174 186 186 202 181 198 98 59 87 57 37 65 46
194 192 228 200 203 221 223 199 217 194 209 187 210 206 221 170 202 187 280 277 161 167 154 153 147 156 161 170 170 171 174 172 197 162 152 150 91 123 159 139 100 72 69 63
200 192 209 198 196 212 211 228 206 213 163 192 208 199 207 192 183 169 186 237 234 167 173 156 150 153 156 158 164 167 170 172 179 183 166 171 167 164 98 97 87 90 71 64
190 186 190 204 198 204 223 205 220 217 182 192 200 226 186 199 188 185 198 205 236 162 181 153 146 163 160 153 158 157 156 175 153 184 181 178 123 122 124 110 109 91 81 75
153 164 202 214 185 203 253 198 199 206 202 214 192 216 196 189 200 202 201 200 198 202 204 213 183 137 144 161 158 157 165 162 162 163 151 114 133 126 129 145 156 135 126 110
165 148 190 240 179 206 216 184 188 196 198 213 202 198 243 190 194 197 199 198 193 198 199 191 153 159 169 159 157 159 152 148 143 139 129 129 127 115 125 168 106 130 117 89
162 164 168 212 208 186 193 188 190 183 198 198 176 198 216 198 191 196 192 197 186 200 214 211 173 171 173 166 159 150 146 141 141 136 132 131 135 148 140 101 121 75 79 70
157 169 170 202 205 210 201 190 195 187 199 206 193 203 217 201 160 196 206 202 201 207 205 215 223 172 164 162 156 147 147 143 140 133 131 148 154 126 94 109 169 90 43 359
209 147 189 177 215 210 233 205 170 225 194 200 190 171 202 189 175 180 221 225 217 196 194 220 232 198 154 155 156 149 150 145 140 140 142 138 123 123 127 116 79 57 27 358
172 156 161 175 206 192 206 226 232 248 219 192 168 189 210 172 192 180 194 193 206 219 216 216 220 197 146 156 163 157 151 146 146 151 135 142 130 128 116 98 67 46 2 346
16 160 162 179 197 199 214 207 219 200 180 225 166 65 115 165 181 196 192 202 201 210 203 215 203 149 148 162 151 161 151 150 145 139 140 134 125 111 88 67 47 11 344 330
159 151 161 179 199 185 220 208 198 259 281 210 132 198 147 106 107 171 161 132 176 220 225 216 187 153 145 161 148 151 158 147 143 143 131 119 98 87 65 40 20 342 331 326
21 174 183 183 192 178 206 201 186 220 209 217 118 148 143 153 149 130 148 166 159 202 159 184 145 126 137 142 143 156 144 135 149 136 105 88 65 51 33 4 345 334 328 321
282 190 206 199 165 186 190 191 189 195 212 225 147 174 162 153 116 123 120 138 113 84 96 100 104 107 112 135 143 120 106 95 109 101 86 74 63 33 3 348 333 329 322 323
166 274 267 185 158 188 184 181 194 198 207 142 236 86 94 100 122 120 104 90 95 90 95 96 86 70 74 73 77 76 71 73 80 74 68 45 19 354 347 333 327 323 320 324
234 202 226 160 168 182 187 185 192 196 214 223 261 135 129 111 105 101 100 95 97 88 86 71 76 87 80 75 73 89 81 67 68 52 43 19 354 341 340 331 326 327 326 321
237 229 82 172 206 170 162 201 192 196 201 165 126 139 108 100 93 83 108 119 101 85 69 82 89 96 92 85 92 82 58 48 37 28 12 359 348 339 335 330 329 331 323 316
225 249 110 282 153 63 310 180 161 179 154 84 111 102 107 106 105 96 98 102 102 85 61 69 86 85 73 56 38 69 52 42 28 15 359 353 345 340 337 331 333 326 325 322
221 268 271 208 211 326 83 142 98 240 150 175 121 131 139 156 125 129 126 117 114 102 91 84 85 93 68 65 54 45 42 35 24 2 353 349 347 340 333 332 332 335 321 307
211 226 225 248 226 154 342 110 136 222 119 355 132 150 162 193 108 134 133 126 132 139 155 151 150 104 74 48 46 51 45 32 10 358 348 345 345 342 333 342 332 316 309 318
204 202 227 234 235 233 146 146 235 91 156 139 133 150 111 115 123 131 130 131 137 137 128 106 89 81 62 42 41 46 37 15 5 350 345 350 350 342 338 326 313 321 318 318
203 209 203 247 236 69 48 70 100 128 136 134 128 118 129 130 130 134 129 123 117 106 98 99 101 87 68 55 39 43 30 10 353 349 352 348 343 345 322 328 331 317 336 340
173 264 223 184 129 114 113 110 135 135 129 114 123 133 133 132 133 130 123 124 118 108 99 96 92 83 77 66 60 52 34 11 355 359 359 357 355 343 342 332 350 335 343 347
106 219 222 94 107 124 142 125 124 114 116 124 127 130 130 131 131 130 122 117 111 108 102 95 94 91 81 73 64 49 30 17 12 358 2 4 356 359 345 359 347 349 2 352
244 285 225 205 178 210 142 132 127 126 125 123 123 123 123 123 122 121 114 116 119 116 115 102 96 88 76 66 56 40 28 18 11 359 359 2 352 1 358 341 322 145 200 308